Tracking 29892 objects as of 21-Nov-2024
HD Live streaming from Space Station
objects crossing your sky now

OBJECT M

Track OBJECT M now!
10-day predictions


NORAD ID: 51835
Int'l Code: 2022-019M
Perigee: 480.8 km
Apogee: 493.5 km
Inclination: 97.4 °
Period: 94.2 minutes
Semi major axis: 6858 km
RCS: Unknown
Launch date: February 27, 2022
Source: People's Republic of China (PRC)
Launch site: Wenchang Satellite Launch Center (WSC)
Your satellite tracking list
Your tracking list is empty




NASA's NSSDC Master Catalog

Two Line Element Set (TLE):
1 51835U 22019M   24326.11727337  .00026021  00000-0  93475-3 0  9996
2 51835  97.4209  39.2396 0009275  47.8811 312.3216 15.28597170151324
Source of the keplerian elements: AFSPC